Terminal Aerodrome Forecast
Issued by NWS Cleveland, OH

Home | Current Version | Previous Version | Text Only | Print | Product List | Glossary Off
Versions: 1 2 3 4 5 6 7 8 9 10 11 12 13 14 15 16

489
FTUS41 KCLE 180437 AAA
TAFYNG
TAF AMD
KYNG 180437Z 1805/1824 26010KT P6SM OVC028
     FM181200 24006KT P6SM BKN035
     FM182100 18008KT P6SM SCT025 OVC040=

USA.gov is the U.S. government's official web portal to all federal, state and local government web resources and services.